Showing default

EUTE 21B, 38992

Orbit data source: Space-Track

EUTE 21B, 38992 is a payload satellite owned by EutelsatSA (FR) in GEO that was launched on Sat, 10 Nov 2012 UTC via an ARIANE 5ECA launch vehicle from the French Guiana (FRGUI). Payloads include a variety of satellites, spacecraft, and rockets equipped with specific instruments for various scientific and technological missions. These include communications satellites like Starlink; space stations such as the ISS; scientific satellites like the Hubble; Earth observation satellites from companies like Planet Labs, Umbra, and HawkEye 360; GPS; miniature CubeSats for education and research; and military/defense satellites.

Not visible in the next 10 days
EUTE 21B details
Identifier
38992, 2012-062B
Orbit
GEO
Last TLE update22 hours ago
Origin
Flag of FREutelsatSA (FR / EUTE)
ManufacturerThales Alenia
MissionOperational Commercial Communications
Bus & MotorSPACEBUS 4000C3, S400
Mass5,012 kg wet, 2,060 kg dry
Launch date (UTC)
2012-11-10 (12 years ago)
Launch vehicle
ARIANE 5ECA
Launch site
French Guiana (FRGUI)
Object type
Payload
Rocket body
Debris
Shape & HBRBox + 2 Pan, 37 m
Radar Cross Section34.184 m², Large (>1 m²)

Expand to show TLE details & history

TLE from 22 hours ago
0 EUTE 21B
1 38992U 12062B   25035.38516924  .00000134  00000-0  00000-0 0  9993
2 38992   0.0699 344.7624 0003010 338.3332 331.9263  1.00274058 44839
Epoch: 2025-02-04T09:14Z
Definitive object data (Epoch: 2025-02-04T09:14:38.622Z)
Latitude-0.05882°
Longitude21.5777°
Altitude35,774.204 km
Speed3.076 km/s
True Right ascension19h 40m 07s
True Declination0° 03' 32"
Sunlit
Object was in daylight at TLE epoch
Visualization TLE readout
Latitude-0.06431°
Longitude-12.75951°
Altitude35,779.427 km
Speed3.075 km/s
Apparent Right ascension17h 42m 41s
Apparent Declination-5° 11' 58"
Sunlit
Object is in daylight
Visualization observer readout
Local Sidereal Time08:56:00
Azimuth64.467° ENE
Elevation-34.47°
Doppler factor1
Orbital elements
Apogee altitude35,799.72 km
Perigee altitude35,774.336 km
Semi-major axis42,165.165 km
Eccentricity0.000301
Inclination0.0699°
RAAN344.7624°
Arg. of periapsis338.3332°
True anomaly331.91006°
Mean anomaly331.9263°
Eccentric anomaly331.91818°
Mean motion0.25068 °/min
BSTARUnknown
Orbital period1436.12 mins
Loading historical data...
38992 neighbors
Authenticating...
Loading maneuver chart data...
Loading historical data...
Loading historical data...
Loading historical data...
Loading historical data...
Loading historical data...
Loading historical data...
Loading historical data...
Other satellites on launch #62 in the year 2012 (2012-11-10 UTC)

EUTE 21B Visibility forecast

Observer location: undefined°, undefined

EUTE 21B is not visible in the next 10 days
Span
Click to sort rows by Start time (UTC) header in descending order
Start Az.
Max El. time (UTC)
Max El. Az.
Max El.
End time (UTC)
End Az.
|